User: anonymous   Login
Location: Baumgartsau
(48.4586°N, 14.0864°E)
Time: 16:32:25
(UTC+00:00)
Language:

SL-16 R/B - Orbit

View from above orbital plane
View from above orbital plane
View from above satellite
View from above satellite

Ground track
Ground track

The orbit data is extracted from the following two-line orbital elements,

1 31793U 07029B   21135.81265134 -.00000326  00000-0 -14507-3 0  9996
2 31793  70.9758 268.1876 0002157 262.3006 208.7956 14.14444652716638
Epoch (UTC): 15 May 2021 19:30:13
Eccentricity: 0.0002157
inclination: 70.9758°
perigee height: 842 km
apogee height: 846 km
right ascension of ascending node: 268.1876°
argument of perigee: 262.3006°
revolutions per day: 14.14444652
mean anomaly at epoch: 208.7956°
orbit number at epoch: 71663

The dashed part of the orbit path shows where the satellite is in the earth's shadow,  

DLR